Theta_e
338 343 347 348 348 349 351 349 350 350 348 344 343 341 341 341 341 340 340 340 340 342 343 343 345 348 347 344 342 341 339 339 339 339 339 340 339 339 339 340 341 341 344
341 344 346 349 350 351 351 350 350 350 348 344 341 340 340 341 340 339 338 337 337 338 341 342 346 345 343 341 339 337 335 335 335 335 335 336 337 337 338 337 339 337 341
341 344 345 348 351 351 351 350 350 350 347 343 341 340 339 337 336 335 335 335 334 335 339 340 343 343 340 338 336 335 334 333 332 332 333 331 332 336 336 335 335 337 337
343 345 346 346 350 351 350 350 349 349 346 343 342 341 339 338 336 333 332 331 331 333 336 339 340 338 337 335 333 332 332 332 331 330 329 330 330 335 335 335 335 335 334
344 345 346 346 349 350 350 350 349 349 347 343 342 342 341 340 339 336 331 329 329 331 334 336 337 335 332 330 330 330 330 329 327 328 330 331 332 333 335 335 334 333 334
344 345 344 347 350 349 349 350 349 349 346 343 343 342 341 340 338 336 332 328 327 329 330 331 332 330 327 325 326 327 327 326 325 327 329 331 330 334 335 333 332 333 334
343 344 345 345 346 349 349 349 349 349 347 344 343 342 340 339 338 336 334 331 327 326 327 327 327 325 323 321 323 324 323 322 320 324 327 329 330 333 334 333 332 332 331
342 343 344 339 341 344 347 348 348 347 346 346 343 342 340 339 337 336 334 333 330 328 326 325 324 323 320 319 321 322 320 318 319 322 325 328 333 335 336 336 334 335 335
340 341 343 343 341 337 340 342 344 345 345 344 343 343 341 340 339 338 336 333 331 329 326 324 322 321 319 318 319 320 319 318 320 322 323 325 329 330 331 331 331 331 331
329 338 340 341 342 343 344 335 337 340 341 341 340 338 335 335 335 334 332 333 331 328 326 324 321 320 318 317 318 317 315 318 321 323 326 327 329 330 330 329 328 327 328
318 322 333 338 340 341 341 336 333 334 336 335 335 331 331 336 335 333 330 332 331 327 324 321 320 318 316 315 315 314 315 316 320 324 325 328 330 331 330 329 329 329 329
316 316 319 322 328 336 339 337 339 340 341 340 340 337 337 335 335 332 326 327 327 326 324 321 317 313 309 308 310 312 312 314 315 318 318 324 326 328 328 327 327 327 328
316 315 315 317 318 323 330 338 337 337 337 338 337 336 333 333 333 330 326 322 321 317 317 315 314 312 310 308 308 309 309 308 310 312 314 320 322 323 324 324 324 324 323
311 313 313 314 316 317 319 327 337 335 337 336 335 334 331 330 330 329 328 323 321 319 316 315 313 311 308 306 306 303 303 303 304 305 309 314 317 319 321 321 321 321 320
308 309 311 312 314 315 317 326 331 335 333 335 336 333 331 329 329 329 326 323 320 318 317 314 313 310 306 303 300 297 297 298 298 299 303 308 310 313 316 318 319 319 319
305 307 309 310 313 316 315 326 328 330 329 329 330 331 329 329 328 324 322 319 318 317 315 312 310 305 301 299 295 294 293 293 292 293 295 300 305 308 311 315 316 316 315
303 305 306 309 312 315 318 324 324 325 325 323 323 327 328 327 325 321 318 316 314 312 308 307 304 301 298 295 292 292 291 290 290 290 290 291 295 304 307 309 310 310 310
302 304 306 309 312 314 316 319 318 320 321 318 319 321 324 323 322 319 315 313 310 307 306 304 301 299 296 292 290 289 289 289 289 289 289 289 290 293 299 301 303 305 307
302 304 304 308 310 312 312 312 312 314 315 314 315 315 317 318 317 316 313 308 305 302 303 301 301 298 292 289 287 287 287 287 288 287 287 288 288 288 289 293 296 298 302
301 303 304 306 308 308 306 306 304 305 304 307 308 309 309 310 311 310 306 303 300 299 299 301 299 296 291 289 286 285 286 286 287 287 287 287 287 287 287 286 286 289 295
300 301 303 305 305 305 305 304 304 304 302 301 302 303 304 305 305 305 300 297 297 300 301 299 297 292 289 288 286 286 285 285 285 285 286 286 286 286 286 285 285 285 286
299 301 302 304 304 305 308 303 302 300 297 298 297 298 299 301 301 299 295 293 296 297 298 297 294 290 289 289 291 290 286 287 285 284 285 285 285 286 285 284 284 283 284
298 300 302 303 303 305 305 295 294 294 294 293 294 293 293 296 296 295 292 292 295 298 297 296 293 291 288 286 289 294 288 290 286 285 283 284 284 284 284 284 282 282 283
297 300 302 302 302 303 298 298 298 298 295 295 296 293 291 293 292 291 289 291 293 296 294 293 292 290 289 286 284 283 284 287 284 280 283 283 283 283 283 284 282 282 282
297 299 301 301 302 302 299 301 300 298 295 294 292 290 289 289 289 288 287 289 290 291 292 290 287 287 288 286 285 283 283 282 282 283 280 281 282 283 283 283 283 282 281
296 299 300 300 300 298 299 299 300 299 291 291 289 288 287 287 286 286 285 287 286 287 287 287 287 287 286 285 285 284 284 283 282 281 280 280 280 282 283 283 282 282 281
Wind_Speed
6 10 12 12 10 9 12 13 14 14 15 15 16 16 15 17 16 16 16 16 17 17 17 18 17 19 22 21 21 21 20 20 20 20 21 21 22 21 22 21 19 19 23
10 9 12 12 11 12 12 12 12 13 15 15 15 16 16 17 17 16 16 16 16 16 17 18 18 21 21 21 20 21 21 20 20 19 18 19 21 21 21 21 20 18 21
11 10 11 11 13 11 11 12 12 14 15 14 16 16 16 17 17 16 16 17 17 17 17 18 19 21 20 19 20 20 21 20 20 19 17 14 17 21 21 22 22 22 22
10 9 10 10 12 11 11 11 13 14 15 15 15 16 16 16 17 17 17 17 18 18 18 18 19 20 20 20 20 21 20 19 18 16 13 13 16 22 22 22 23 23 22
9 9 9 11 12 12 12 12 13 15 15 15 16 16 16 16 16 17 18 18 18 19 19 19 19 20 20 21 21 21 21 19 17 14 13 13 13 20 23 22 22 23 22
10 9 10 11 13 12 11 11 13 15 16 15 16 16 16 16 17 16 17 18 19 19 19 19 20 20 21 21 21 20 20 19 15 14 13 14 16 21 22 22 22 21 21
10 10 10 10 11 12 11 11 11 14 15 15 15 16 15 16 17 16 17 18 19 19 19 20 20 21 21 21 21 21 19 18 13 13 13 15 14 21 21 21 21 21 22
12 10 9 9 10 11 11 10 9 11 12 15 15 15 15 15 16 17 18 18 19 19 19 20 20 21 21 21 21 20 19 17 13 14 14 14 18 22 24 24 24 24 22
7 10 8 8 8 8 8 9 9 10 11 13 14 14 13 14 14 14 16 18 19 19 19 20 19 21 21 21 20 19 19 17 13 10 13 11 20 23 22 23 24 24 24
3 8 10 8 8 8 8 8 8 9 10 12 12 12 12 12 12 13 12 16 19 19 19 19 20 20 21 20 19 19 17 17 13 12 11 10 19 22 23 23 23 23 23
4 4 5 8 8 8 9 8 9 9 10 11 11 11 11 8 10 12 12 15 19 18 18 19 19 20 21 20 19 18 16 9 12 10 8 20 23 24 24 25 25 25 25
6 5 4 4 3 3 4 6 6 8 7 8 9 10 7 9 8 9 10 17 17 17 18 19 19 18 14 9 8 13 9 12 11 11 9 21 23 24 24 24 24 25 24
6 5 5 4 3 3 3 3 3 3 4 5 8 9 8 7 7 6 6 6 8 12 7 10 10 8 11 9 9 9 11 11 9 9 14 19 23 23 23 23 23 24 25
7 7 6 4 4 3 2 2 2 4 6 5 5 9 8 4 5 6 5 5 4 6 10 8 7 10 12 13 12 13 13 10 8 8 13 19 23 24 24 25 24 24 25
7 7 7 5 4 4 4 3 3 3 3 4 7 8 7 7 7 6 6 5 4 6 8 7 7 8 9 12 12 13 13 13 13 8 8 20 23 23 23 24 24 25 25
6 8 6 6 5 4 5 6 5 3 3 3 3 6 9 7 7 7 6 5 4 5 7 7 7 8 8 10 12 12 13 12 12 11 8 11 23 23 24 25 25 25 25
6 6 8 6 5 6 6 5 5 4 4 4 3 5 8 8 9 9 7 5 5 6 10 9 9 9 11 10 13 11 11 12 11 12 10 8 10 23 24 24 24 23 22
6 8 6 6 6 6 6 5 4 5 5 3 4 4 8 10 11 9 8 7 7 6 8 8 8 10 10 9 9 9 9 10 12 11 10 8 9 8 16 23 23 23 22
10 9 9 8 8 7 6 5 4 5 4 4 3 3 4 7 9 9 8 7 8 8 8 8 9 10 10 10 10 9 8 8 9 9 11 11 12 10 8 18 22 22 22
9 8 8 8 8 8 5 5 3 3 3 3 3 3 6 6 9 9 7 9 7 9 8 9 12 9 10 10 11 9 8 7 7 8 9 9 10 11 10 11 9 11 21
9 10 11 11 10 9 5 4 4 4 3 2 2 4 5 7 8 9 7 8 7 10 11 12 12 15 9 11 9 8 8 8 9 7 6 7 8 9 10 10 8 7 8
14 13 13 13 13 11 7 4 3 4 2 2 2 4 4 6 7 9 10 8 10 10 12 13 14 9 6 6 4 4 5 3 5 5 4 5 7 6 8 9 10 10 9
15 17 16 15 14 11 9 7 5 5 4 3 3 3 3 5 6 8 9 9 10 10 11 13 12 9 8 3 5 2 5 4 5 2 4 3 5 5 5 6 8 9 9
19 14 15 14 15 12 13 11 10 6 6 4 6 4 5 4 5 7 8 9 10 8 11 11 9 6 6 7 3 2 3 5 5 5 3 2 3 4 5 4 5 7 7
12 14 13 14 13 13 14 13 10 8 4 5 6 9 6 4 4 6 8 9 9 7 9 10 9 8 4 6 4 4 3 3 3 3 5 4 3 3 3 4 4 4 5
10 13 14 16 15 13 15 14 15 13 10 9 8 7 5 4 3 4 6 6 7 7 9 8 7 8 6 5 5 5 4 3 3 3 3 2 1 2 1 3 3 2 3
Wind_Direction
178 182 181 165 149 137 120 121 112 106 102 97 92 90 89 89 84 81 78 77 77 77 78 77 75 83 85 81 76 71 68 65 62 61 59 59 60 55 52 49 46 47 45
154 167 166 162 156 144 129 124 118 114 101 96 91 89 87 84 82 79 79 77 77 79 79 77 77 81 79 77 72 70 67 67 64 58 57 62 59 57 55 52 50 51 48
147 154 153 152 144 138 125 126 123 117 107 100 93 86 85 86 86 79 76 74 75 77 77 79 80 81 79 76 72 67 65 64 61 55 53 61 62 59 56 54 53 49 50
143 146 150 142 135 132 128 126 128 121 113 107 101 97 90 84 82 81 78 78 78 79 80 80 80 80 77 72 71 70 69 63 57 54 60 60 63 61 59 55 53 51 49
148 147 149 143 138 141 135 126 132 128 119 115 106 97 91 86 83 80 80 77 78 78 79 79 80 78 73 70 69 70 66 61 55 56 59 62 64 61 59 59 56 53 51
152 153 153 149 146 142 132 128 137 129 124 116 110 105 97 92 84 81 80 80 79 81 80 80 79 78 76 74 74 72 68 61 57 56 57 59 63 64 62 61 57 57 56
161 160 160 156 149 141 140 138 138 137 131 123 116 110 105 97 89 86 85 82 82 82 82 81 81 80 77 75 74 72 67 60 59 56 54 60 63 63 63 60 61 58 58
161 166 164 163 155 153 149 144 140 133 134 128 126 122 116 109 98 94 91 88 87 85 85 85 85 83 81 79 77 73 65 59 59 59 55 57 58 62 57 57 55 52 56
170 165 169 168 161 155 151 152 149 141 140 139 135 132 124 115 103 93 95 92 89 87 87 88 88 87 84 81 79 75 66 59 65 60 62 62 60 57 53 50 50 48 49
122 157 162 165 165 163 164 162 158 151 147 146 145 138 133 120 108 92 88 95 94 90 89 90 90 89 87 82 77 69 59 56 56 56 61 63 67 66 64 62 58 55 53
106 113 145 167 179 177 169 170 166 159 157 153 150 144 135 134 124 114 106 102 99 97 96 95 93 92 89 84 77 70 66 58 57 53 54 60 63 61 59 57 53 50 49
169 158 152 141 153 170 158 168 175 165 167 164 160 151 144 143 134 121 108 105 100 97 95 93 91 88 86 84 77 68 67 64 56 55 50 54 59 60 60 59 57 56 53
172 166 168 159 191 204 176 175 173 162 164 172 165 155 145 142 137 129 123 111 114 104 98 94 90 83 85 87 78 74 71 64 60 55 45 52 63 61 58 58 57 57 55
174 175 172 173 192 216 227 217 205 174 174 169 167 161 149 142 140 141 131 124 115 118 108 98 94 94 88 84 82 80 76 73 69 63 45 48 59 58 57 56 56 55 53
190 184 184 178 195 211 212 205 214 209 186 173 166 162 153 147 152 140 131 118 117 120 115 110 103 97 90 89 84 85 80 78 74 68 56 53 59 60 59 58 56 53 51
191 192 184 191 199 202 210 200 202 175 169 137 132 163 152 150 150 134 131 122 119 117 107 101 103 97 91 93 88 84 83 79 77 76 69 53 61 59 60 59 56 53 50
198 188 191 194 194 199 200 199 194 161 167 141 145 146 150 149 147 135 132 126 121 115 107 103 96 102 100 95 90 84 85 82 79 74 71 69 59 59 61 61 59 57 54
181 190 188 190 189 187 183 173 164 159 165 147 148 148 158 153 148 143 141 138 129 121 114 114 119 110 106 103 99 88 85 83 82 77 74 72 70 66 60 62 60 55 52
193 183 189 190 189 177 163 151 138 155 148 140 140 138 140 141 142 142 137 138 140 121 117 127 121 123 119 108 99 89 83 86 85 85 80 76 72 71 68 62 56 53 49
190 186 183 182 179 166 143 126 110 127 120 116 133 133 141 136 136 134 131 139 145 123 125 130 126 123 119 117 107 92 85 84 86 82 80 78 76 76 72 66 60 50 50
191 187 187 180 178 163 159 154 169 169 147 121 130 131 132 138 134 139 138 141 142 141 145 140 130 131 121 132 116 102 80 76 77 80 85 87 87 84 81 70 62 53 45
191 191 187 190 180 181 172 149 151 151 125 124 135 127 151 141 144 145 146 157 146 136 143 149 149 141 136 187 142 135 151 134 79 69 86 94 93 95 82 74 68 60 52
195 192 190 188 183 183 165 123 108 91 87 125 160 136 137 141 148 148 146 145 149 150 159 161 162 158 152 178 228 176 147 153 143 165 84 98 110 100 103 93 76 63 54
208 191 188 184 180 177 164 165 176 169 160 181 170 153 142 137 146 147 143 148 154 156 162 167 167 161 143 153 145 78 59 128 158 157 185 154 123 126 126 111 92 69 55
191 188 184 177 181 176 179 181 181 178 153 150 141 142 136 121 145 148 147 151 153 159 159 164 171 167 154 154 155 157 102 75 78 142 155 165 182 149 133 130 115 96 55
179 180 181 179 184 175 181 184 187 178 151 149 150 150 151 148 146 152 143 150 145 151 160 164 161 158 148 142 143 140 147 152 155 139 118 141 194 176 175 150 144 132 63